[[{"header":{"parameterUnit":"m.s-1","parameterCategory":1,"la1":30.2991,"la2":30.254,"lo1":-89.0895,"lo2":-89.0444,"dy":0.0017,"dx":0.0017,"nx":28,"ny":28,"refTime":"2025-06-06T21:00:00:Z","depth":0,"parameterNumber":2,"parameterNumberName":"U-component_of_WINDS"},"data":[0,0,0,0,0,0,0,0,0,0,0,0,0,0,0,0,0,0,0,0,0,0,0,0,0,0,0,0,0,0,0,0,0,0,0,0,0,0,0,0,0,0,0,0,0,0,0,0,0,0,0,0,0,0,0,0,0,0,4.2584,4.2586,0,4.2711,4.2712,4.2714,4.27,4.2698,4.2696,4.2695,4.2825,4.283,4.2835,0,0,0,0,0,0,0,0,0,0,0,0,0,4.2332,4.2337,4.2584,4.2586,4.2587,4.271,4.2712,4.2714,4.2701,4.2698,4.2696,4.2694,4.2823,4.283,4.2836,0,0,0,0,0,0,0,0,0,0,0,0,0,4.2449,4.2339,4.2584,4.2596,4.2598,4.271,4.2712,4.2714,4.2701,4.2698,4.2695,4.2692,4.2821,4.2829,4.2837,4.2946,0,0,4.2861,4.2865,0,0,0,0,0,0,0,0,4.2442,4.2458,4.2592,4.2595,4.2598,4.2687,4.2671,4.2792,4.2702,4.2662,4.2694,4.2691,4.2782,4.2793,4.2823,4.2952,4.2958,4.2862,4.2867,4.287,4.2873,0,0,0,0,0,0,0,4.2434,4.2452,4.2634,4.2594,4.2598,4.2595,4.2608,4.2694,4.2737,4.2665,4.2665,4.268,4.2782,4.2815,4.2826,4.296,4.2862,4.2869,4.2874,4.2877,4.3183,4.3187,0,0,0,0,0,0,4.2423,4.2446,4.263,4.2638,4.2511,4.2602,4.2617,4.2661,4.2736,4.2745,4.2682,4.2679,4.2803,4.2816,4.283,4.2962,4.287,4.2878,4.2882,4.318,4.3184,4.3188,0,0,0,0,0,0,4.2418,4.244,4.2625,4.2542,4.2565,4.2609,4.266,4.2665,4.2698,4.2749,4.2756,4.2708,4.2801,4.2819,4.2917,4.2966,4.2881,4.2889,4.3176,4.3181,4.3186,4.3226,0,0,0,0,0,0,4.241,4.2438,4.2479,4.2543,4.257,4.271,4.2663,4.267,4.2712,4.2708,4.2775,4.2783,4.28,4.2905,4.2925,4.2976,4.2895,4.3172,4.3179,4.3184,4.3221,4.3232,4.3242,0,0,0,0,0,4.2402,4.2486,4.2482,4.2504,4.2623,4.2712,4.2728,4.2746,4.2716,4.2758,4.279,4.2781,4.2958,4.2915,4.2937,4.2991,4.3169,4.3177,4.3184,4.3216,4.323,4.3242,0,0,0,0,0,0,4.2428,4.2495,4.249,4.2598,4.265,4.271,4.2764,4.276,4.2821,4.2816,4.2836,4.2851,4.2949,4.298,4.2932,4.31,4.3059,4.3072,4.3076,4.309,4.31,4.309,4.2901,0,0,0,0,0,4.2446,4.2513,4.2568,4.2658,4.2684,4.272,4.2759,4.2769,4.2823,4.2845,4.2885,4.2938,4.3005,4.305,4.3115,4.3226,4.3239,4.3274,4.3284,4.3293,4.3303,4.3362,4.3378,4.3213,4.3213,4.3212,0,0,4.2485,4.253,4.2571,4.2664,4.2705,4.2774,4.2738,4.2813,4.2864,4.2856,4.295,4.2982,4.3043,4.3147,4.3195,4.3176,4.3351,4.3302,4.3309,4.3314,4.3372,4.3387,4.3401,4.3218,4.3217,4.3216,0,0,4.259,4.2631,4.271,4.2751,4.2814,4.2837,4.2856,4.2917,4.2937,4.3032,4.3027,4.3089,4.3205,4.3248,4.3286,4.3407,4.34,4.3428,4.3482,4.354,4.3553,4.3565,4.3607,4.3622,4.3438,4.3438,4.3438,0,4.263,4.2733,4.2751,4.2826,4.2867,4.2863,4.2942,4.2982,4.3063,4.3091,4.3069,4.3214,4.3255,4.3369,4.3398,4.3429,4.3451,4.342,4.355,4.3562,4.3573,4.3613,4.3629,4.3441,4.3441,4.344,4.344,0,4.2779,4.285,4.2907,4.2984,4.3031,4.3108,4.3138,4.3184,4.3189,4.3215,4.3311,4.336,4.3434,4.3462,4.3469,4.3577,4.3563,4.3546,4.3504,4.3591,4.3629,4.3645,4.3445,4.3444,4.3443,4.3443,0,0,4.2903,4.2989,4.3009,4.3044,4.3112,4.3168,4.3245,4.3317,4.3356,4.3412,4.3476,4.3575,4.3558,4.3601,4.3612,4.3663,4.3754,4.3639,4.364,4.3657,4.3875,4.3887,4.3905,4.3751,4.3754,4.3756,4.387,0,4.3014,4.3149,4.3167,4.3287,4.3353,4.335,4.3417,4.3467,4.3493,4.3552,4.3581,4.365,4.3624,4.3649,4.37,4.3732,4.3798,4.3725,4.381,4.3813,4.3793,4.3925,4.3938,4.4043,4.3885,4.3887,4.3889,0,4.3161,4.322,4.3346,4.3405,4.3433,4.3493,4.356,4.3618,4.3674,4.3689,4.3736,4.3741,4.382,4.3777,4.3886,4.3835,4.3872,4.3893,4.3897,4.3905,4.3855,4.3934,4.4077,4.4092,4.3913,4.3911,4.391,0,4.3238,4.3349,4.3439,4.3468,4.3539,4.3581,4.3613,4.3666,4.3708,4.3767,4.3794,4.3862,4.3899,4.3951,4.3974,4.3941,4.4082,4.404,4.4096,4.4095,4.4124,4.4122,4.4273,4.415,4.415,4.415,4.415,0,4.3359,4.3436,4.3474,4.3529,4.3615,4.3635,4.3719,4.375,4.3797,4.3857,4.386,4.3917,4.3944,4.4005,4.4024,4.4111,4.4128,4.4142,4.4146,4.4141,4.4139,4.4164,4.4156,4.4154,4.4153,4.4152,4.4152,0,4.3458,4.3487,4.3584,4.3643,4.366,4.372,4.3771,4.3824,4.3849,4.3926,4.3945,4.3985,4.4057,4.4086,4.4174,4.4186,4.4286,4.4285,4.4267,4.4267,4.432,4.4314,4.4491,4.4515,4.4379,4.438,4.4381,0,4.3533,4.3592,4.3657,4.3697,4.373,4.3795,4.3838,4.386,4.3905,4.3972,4.4017,4.4089,4.4147,4.4262,4.4299,4.4367,4.4366,4.4424,4.4376,4.4369,4.4365,4.4361,4.4366,4.4432,4.4433,4.4434,4.4435,0,4.3661,4.3673,4.3734,4.38,4.385,4.3904,4.3955,4.3989,4.4019,4.4068,4.4142,4.4187,4.4277,4.4347,4.4417,4.4449,4.4447,4.445,4.4466,4.4461,4.4447,4.4453,4.4289,4.4445,4.4444,4.4444,4.4443,4.4443,4.375,4.3802,4.3855,4.3923,4.3964,4.4012,4.4065,4.4096,4.4158,4.4232,4.4242,4.432,4.4374,4.4466,4.4502,4.4563,4.4548,4.4572,4.4577,4.4582,4.4585,4.4439,4.4576,4.4576,4.4576,4.4575,4.4575,0,4.3877,4.3911,4.3974,4.4046,4.4099,4.4092,4.4149,4.4194,4.4262,4.4313,4.437,4.4453,4.4522,4.4564,4.4633,4.4674,4.4675,4.4691,4.4688,4.4695,4.4596,4.4574,4.469,4.4689,4.4689,4.4689,4.4689,4.4689,4.395,4.4036,4.4054,4.4161,4.4195,4.4271,4.4304,4.4348,4.4388,4.4481,4.4537,4.4564,4.4611,4.4684,4.4746,4.4757,4.4781,4.4799,4.4808,4.4714,4.4702,4.4691,4.467,4.4804,4.4805,4.4902,4.4903,4.4904]},{"header":{"parameterUnit":"m.s-1","parameterCategory":1,"la1":30.2991,"la2":30.254,"lo1":-89.0895,"lo2":-89.0444,"dy":0.0017,"dx":0.0017,"nx":28,"ny":28,"refTime":"2025-06-06T21:00:00:Z","depth":0,"parameterNumber":3,"parameterNumberName":"V-component_of_WINDS"},"data":[0,0,0,0,0,0,0,0,0,0,0,0,0,0,0,0,0,0,0,0,0,0,0,0,0,0,0,0,0,0,0,0,0,0,0,0,0,0,0,0,0,0,0,0,0,0,0,0,0,0,0,0,0,0,0,0,0,0,1.1931,1.1931,0,1.1997,1.1998,1.1999,1.2026,1.2025,1.2025,1.2025,1.2092,1.2094,1.2096,0,0,0,0,0,0,0,0,0,0,0,0,0,1.1824,1.1826,1.1931,1.1931,1.1932,1.1997,1.1998,1.1999,1.2026,1.2025,1.2025,1.2025,1.2091,1.2093,1.2096,0,0,0,0,0,0,0,0,0,0,0,0,0,1.1878,1.1826,1.193,1.1953,1.1956,1.1997,1.1998,1.1999,1.2026,1.2025,1.2025,1.2025,1.209,1.2093,1.2096,1.2119,0,0,1.2105,1.2106,0,0,0,0,0,0,0,0,1.1875,1.1882,1.1949,1.1952,1.1955,1.2003,1.1985,1.2039,1.2026,1.1999,1.2025,1.2025,1.2062,1.2068,1.2081,1.2122,1.2125,1.2105,1.2107,1.2108,1.2109,0,0,0,0,0,0,0,1.1871,1.1879,1.1957,1.195,1.1954,1.196,1.1967,1.1996,1.2031,1.2001,1.2004,1.2011,1.2064,1.2078,1.2082,1.2126,1.2105,1.2108,1.211,1.2111,1.2189,1.2189,0,0,0,0,0,0,1.1864,1.1876,1.1955,1.1959,1.1914,1.1962,1.197,1.1988,1.2031,1.2037,1.2011,1.2012,1.2073,1.2079,1.2085,1.2114,1.2108,1.2111,1.2113,1.2188,1.2189,1.2189,0,0,0,0,0,0,1.1862,1.1871,1.1952,1.1918,1.1929,1.1964,1.1983,1.1989,1.2003,1.2039,1.2045,1.2019,1.2073,1.2081,1.211,1.2117,1.2112,1.2115,1.2188,1.2189,1.2189,1.2173,0,0,0,0,0,0,1.1859,1.187,1.1879,1.1918,1.1931,1.1977,1.1984,1.1991,1.2008,1.201,1.2047,1.2053,1.2073,1.2106,1.2113,1.2121,1.2117,1.2188,1.2188,1.2189,1.2174,1.2173,1.2173,0,0,0,0,0,1.1855,1.1872,1.188,1.1889,1.1943,1.1977,1.1985,1.2008,1.2009,1.2018,1.2041,1.2052,1.2115,1.2109,1.2117,1.2126,1.2187,1.2188,1.2189,1.2174,1.2173,1.2173,0,0,0,0,0,0,1.1833,1.1878,1.1887,1.1917,1.1943,1.1982,1.1995,1.2007,1.2033,1.2033,1.206,1.2068,1.2096,1.2114,1.2106,1.215,1.2152,1.2154,1.2137,1.2137,1.2137,1.2133,1.212,0,0,0,0,0,1.1831,1.1856,1.1894,1.1917,1.193,1.196,1.1975,1.1991,1.2019,1.203,1.2055,1.2081,1.2107,1.2123,1.2148,1.2176,1.2184,1.2186,1.2186,1.2185,1.2187,1.2203,1.2204,1.2192,1.2192,1.2192,0,0,1.1829,1.1857,1.187,1.1913,1.1935,1.1959,1.1969,1.1994,1.2012,1.2034,1.2063,1.2082,1.2113,1.2142,1.2155,1.2157,1.2193,1.2186,1.2186,1.2188,1.2204,1.2205,1.2206,1.2192,1.2192,1.2192,0,0,1.1837,1.1861,1.1883,1.1905,1.1938,1.1958,1.1963,1.2,1.2013,1.2044,1.206,1.2081,1.2125,1.2146,1.2163,1.2178,1.2189,1.2186,1.2185,1.22,1.2201,1.2202,1.2207,1.2209,1.2187,1.2187,1.2187,0,1.183,1.1868,1.1892,1.1917,1.1935,1.1956,1.1978,1.1998,1.2037,1.2049,1.2051,1.2106,1.2128,1.2162,1.2165,1.2178,1.2184,1.2182,1.2199,1.22,1.2201,1.2207,1.2209,1.2187,1.2187,1.2187,1.2187,0,1.1857,1.1883,1.1897,1.1935,1.1955,1.1978,1.2005,1.2022,1.2035,1.2055,1.2085,1.2112,1.2143,1.2152,1.2165,1.2188,1.2188,1.2194,1.2196,1.2201,1.2207,1.2209,1.2186,1.2186,1.2186,1.2186,0,0,1.1854,1.1906,1.191,1.1928,1.1966,1.1986,1.201,1.2041,1.2054,1.2081,1.2101,1.2137,1.2143,1.2161,1.2177,1.219,1.22,1.2194,1.2195,1.2194,1.2226,1.2221,1.2224,1.2207,1.2208,1.2208,1.2223,0,1.1868,1.1912,1.1934,1.1969,1.1992,1.2012,1.2032,1.2057,1.2076,1.2098,1.2118,1.2144,1.2149,1.2161,1.2174,1.2196,1.2207,1.2195,1.2226,1.2227,1.2218,1.2227,1.2222,1.2235,1.2226,1.2226,1.2226,0,1.189,1.1917,1.1953,1.1988,1.1999,1.2017,1.2047,1.2069,1.2097,1.211,1.213,1.2145,1.217,1.217,1.2204,1.2196,1.221,1.2222,1.2223,1.2227,1.2227,1.2231,1.224,1.2242,1.223,1.223,1.2229,0,1.1884,1.1929,1.1957,1.1971,1.2013,1.2025,1.2043,1.2071,1.2088,1.2114,1.2125,1.2153,1.2169,1.219,1.2212,1.221,1.2243,1.2246,1.2254,1.2254,1.2261,1.226,1.2272,1.2269,1.2269,1.2269,1.2269,0,1.1897,1.1919,1.1955,1.1972,1.1997,1.2022,1.2045,1.2064,1.2089,1.211,1.2128,1.2146,1.2174,1.2196,1.2213,1.2239,1.2246,1.2256,1.226,1.2255,1.2253,1.2264,1.2264,1.2269,1.2269,1.2269,1.2269,0,1.1895,1.1921,1.1952,1.1989,1.1998,1.2015,1.2046,1.2063,1.2082,1.2108,1.2115,1.2145,1.2172,1.2196,1.2231,1.2242,1.2268,1.2274,1.2259,1.2261,1.2269,1.2268,1.2288,1.2292,1.2286,1.2286,1.2286,0,1.1902,1.192,1.1958,1.1974,1.1991,1.2016,1.2033,1.2058,1.2075,1.2109,1.2121,1.215,1.2174,1.2215,1.2239,1.2266,1.2272,1.2278,1.2277,1.227,1.2273,1.2272,1.2273,1.2278,1.2278,1.2278,1.2278,0,1.1912,1.1923,1.1949,1.1978,1.1999,1.2023,1.2047,1.2058,1.2088,1.2106,1.2134,1.2153,1.2189,1.2216,1.2245,1.2263,1.2275,1.2278,1.2281,1.2276,1.2267,1.2272,1.2259,1.2277,1.2277,1.2277,1.2277,1.2277,1.1915,1.1931,1.1961,1.1988,1.2009,1.2032,1.2049,1.2071,1.2095,1.2126,1.2139,1.2167,1.2194,1.2235,1.2253,1.2274,1.2277,1.2282,1.2283,1.2284,1.2283,1.2263,1.228,1.228,1.228,1.228,1.228,0,1.1926,1.1946,1.1971,1.2005,1.2026,1.2036,1.2063,1.208,1.2105,1.2129,1.2153,1.2184,1.2211,1.2237,1.2265,1.2277,1.2283,1.2283,1.2283,1.2287,1.2279,1.2274,1.2278,1.2278,1.2278,1.2278,1.2278,1.2278,1.1934,1.1962,1.1977,1.2015,1.2034,1.2063,1.2078,1.2098,1.2118,1.2153,1.2175,1.2192,1.2217,1.2247,1.2271,1.2278,1.2288,1.2286,1.2295,1.2287,1.2287,1.2287,1.2282,1.2288,1.2288,1.2301,1.2301,1.2301]}]]